Lapeer, MI

11:18 PM EST on February 27, 2017 (GMT -0500)
Lapeer

Weather History for KD95 - January, 2013

Change the Weather History Date:

Friday, January 4, 2013

  Actual Average (KFNT) Record (KFNT)
Temperature  
Mean Temperature 28 °F -  
Max Temperature 31 °F 31 °F 61 °F (1997)
Min Temperature 24 °F 16 °F -16 °F (1981)
Degree Days  
Heating Degree Days 38    
Moisture  
Dew Point 21 °F    
Average Humidity 74    
Maximum Humidity 82    
Minimum Humidity 67    
Precipitation  
Precipitation 0.00 in - - ()
Sea Level Pressure  
Sea Level Pressure 30.01 in    
Wind  
Wind Speed 14 mph (WSW)    
Max Wind Speed 24 mph    
Max Gust Speed 33 mph    
Visibility 10 miles    
Events      
Averages and records for this station are not official NWS values.
T = Trace of Precipitation, MM = Missing Value Source: NWS Daily Summary

Daily Weather History Graph

Daily Weather History Graph

Search for Another Location

Airport or City:

Trip Planner

Search our weather history database for the weather conditions in past years. The results will help you decide how hot, cold, wet, or windy it might be!

Date:

Astronomy

Jan. 04, 2013 Rise Set
Actual Time 8:04 AM EST 5:11 PM EST
Civil Twilight 7:32 AM EST 5:44 PM EST
Nautical Twilight 6:56 AM EST 6:19 PM EST
Astronomical Twilight 6:22 AM EST 6:54 PM EST
Moon No Moon Rise 11:34 AM EST (1/4)
Length of Visible Light 10h 11m
Length of Day
9h 07m
Waning Gibbous, 55% of the Moon is Illuminated
Jan 4
Waning Gibbous
Jan 4
Last Quarter
Jan 11
New
Jan 18
First Quarter
Jan 26
Full

Hourly Weather History & Observations

Time (EST) Temp. Windchill Dew Point Humidity Pressure Visibility Wind Dir Wind Speed Gust Speed Precip Events Conditions
12:13 AM 27.9 °F 18.4 °F 20.7 °F 74% 30.07 in 10.0 mi WSW 10.4 mph - N/A   Overcast
12:33 AM 27.5 °F 18.0 °F 21.2 °F 77% 30.07 in 10.0 mi WSW 10.4 mph 17.3 mph N/A   Overcast
12:53 AM 27.9 °F 17.3 °F 21.2 °F 76% 30.05 in 10.0 mi WSW 12.7 mph 16.1 mph N/A   Overcast
1:13 AM 28.0 °F 18.1 °F 21.2 °F 76% 30.04 in 10.0 mi WSW 11.5 mph 20.7 mph N/A   Overcast
1:32 AM 28.0 °F 17.0 °F 21.7 °F 77% 30.04 in 10.0 mi WSW 13.8 mph - N/A   Overcast
1:53 AM 28.2 °F 15.9 °F 21.6 °F 76% 30.04 in 10.0 mi WSW 17.3 mph 23.0 mph N/A   Overcast
2:13 AM 28.2 °F 17.2 °F 21.0 °F 74% 30.04 in 10.0 mi West 13.8 mph 20.7 mph N/A   Overcast
2:32 AM 28.2 °F 16.8 °F 21.0 °F 74% 30.03 in 10.0 mi WSW 15.0 mph 20.7 mph N/A   Overcast
3:33 AM 28.4 °F 17.0 °F 21.2 °F 74% 30.02 in 10.0 mi WSW 15.0 mph 23.0 mph N/A   Overcast
3:53 AM 28.4 °F 16.6 °F 21.2 °F 74% 30.01 in 10.0 mi WSW 16.1 mph 26.5 mph N/A   Overcast
4:13 AM 28.0 °F 16.5 °F 20.8 °F 74% 30.01 in 10.0 mi WSW 15.0 mph 24.2 mph N/A   Overcast
4:32 AM 27.9 °F 15.1 °F 20.3 °F 73% 30.01 in 10.0 mi WSW 18.4 mph 26.5 mph N/A   Mostly Cloudy
4:53 AM 27.5 °F 15.4 °F 20.3 °F 74% 30.01 in 10.0 mi WSW 16.1 mph 20.7 mph N/A   Overcast
5:12 AM 27.5 °F 15.4 °F 20.5 °F 75% 30.00 in 10.0 mi WSW 16.1 mph 23.0 mph N/A   Overcast
5:33 AM 27.5 °F 15.4 °F 20.3 °F 74% 30.00 in 10.0 mi WSW 16.1 mph 25.3 mph N/A   Mostly Cloudy
5:53 AM 27.3 °F 15.2 °F 20.1 °F 74% 29.99 in 10.0 mi WSW 16.1 mph 25.3 mph N/A   Scattered Clouds
6:12 AM 27.0 °F 15.2 °F 20.1 °F 75% 30.00 in 10.0 mi WSW 15.0 mph 21.9 mph N/A   Clear
6:33 AM 26.6 °F 14.7 °F 19.9 °F 76% 30.00 in 10.0 mi WSW 15.0 mph 23.0 mph N/A   Clear
6:53 AM 26.2 °F 13.8 °F 19.8 °F 76% 30.00 in 10.0 mi WSW 16.1 mph 21.9 mph N/A   Clear
7:12 AM 26.2 °F 13.8 °F 19.8 °F 76% 30.00 in 10.0 mi WSW 16.1 mph 23.0 mph N/A   Clear
7:33 AM 26.2 °F 15.2 °F 19.8 °F 76% 29.99 in 10.0 mi WSW 12.7 mph 23.0 mph N/A   Clear
7:53 AM 26.2 °F 13.8 °F 19.8 °F 76% 29.99 in 10.0 mi WSW 16.1 mph 26.5 mph N/A   Clear
8:12 AM 25.9 °F 14.3 °F 19.8 °F 78% 30.00 in 10.0 mi WSW 13.8 mph 23.0 mph N/A   Clear
8:33 AM 25.7 °F 13.1 °F 19.4 °F 77% 30.00 in 10.0 mi WSW 16.1 mph 21.9 mph N/A   Clear
8:53 AM 26.2 °F 13.8 °F 19.6 °F 76% 30.00 in 10.0 mi SW 16.1 mph 19.6 mph N/A   Clear
9:12 AM 26.4 °F 13.6 °F 19.6 °F 75% 29.99 in 10.0 mi WSW 17.3 mph 23.0 mph N/A   Clear
9:33 AM 26.6 °F 13.8 °F 19.4 °F 74% 29.99 in 10.0 mi WSW 17.3 mph 28.8 mph N/A   Clear
9:53 AM 27.1 °F 15.4 °F 19.6 °F 73% 29.99 in 10.0 mi WSW 15.0 mph 24.2 mph N/A   Scattered Clouds
10:12 AM 27.3 °F 14.0 °F 19.8 °F 73% 30.00 in 10.0 mi WSW 19.6 mph 33.4 mph N/A   Mostly Cloudy
10:33 AM 27.1 °F 14.1 °F 19.8 °F 74% 30.01 in 10.0 mi WSW 18.4 mph 26.5 mph N/A   Overcast
10:53 AM 27.3 °F 14.0 °F 19.9 °F 74% 30.01 in 10.0 mi WSW 19.6 mph 29.9 mph N/A   Overcast
11:12 AM 27.5 °F 14.2 °F 20.1 °F 74% 30.00 in 10.0 mi SW 19.6 mph 31.1 mph N/A   Mostly Cloudy
11:33 AM 27.9 °F 15.9 °F 20.5 °F 74% 29.99 in 10.0 mi WSW 16.1 mph 28.8 mph N/A   Mostly Cloudy
11:53 AM 27.7 °F 14.8 °F 20.5 °F 74% 29.98 in 10.0 mi WSW 18.4 mph 27.6 mph N/A   Mostly Cloudy
12:12 PM 27.7 °F 15.2 °F 20.3 °F 74% 29.97 in 10.0 mi WSW 17.3 mph 27.6 mph N/A   Mostly Cloudy
12:33 PM 28.4 °F 14.1 °F 20.8 °F 73% 29.95 in 10.0 mi WSW 24.2 mph 28.8 mph N/A   Scattered Clouds
12:53 PM 29.1 °F 17.1 °F 21.0 °F 72% 29.94 in 10.0 mi WSW 17.3 mph 24.2 mph N/A   Clear
1:12 PM 29.7 °F 16.7 °F 21.0 °F 70% 29.94 in 10.0 mi WSW 20.7 mph 29.9 mph N/A   Clear
1:33 PM 30.2 °F 18.1 °F 21.2 °F 69% 29.93 in 10.0 mi WSW 18.4 mph 28.8 mph N/A   Clear
1:53 PM 30.7 °F 18.5 °F 21.2 °F 68% 29.93 in 10.0 mi WSW 19.6 mph 25.3 mph N/A   Clear
2:12 PM 31.1 °F 20.1 °F 21.6 °F 68% 29.93 in 10.0 mi WSW 16.1 mph 24.2 mph N/A   Clear
2:33 PM 31.6 °F 20.7 °F 21.9 °F 67% 29.94 in 10.0 mi WSW 16.1 mph 21.9 mph N/A   Clear
2:53 PM 31.6 °F 21.2 °F 21.7 °F 67% 29.93 in 10.0 mi WSW 15.0 mph 20.7 mph N/A   Clear
3:12 PM 31.6 °F 21.6 °F 21.7 °F 67% 29.93 in 10.0 mi WSW 13.8 mph 25.3 mph N/A   Clear
3:33 PM 31.5 °F 20.9 °F 21.6 °F 67% 29.95 in 10.0 mi SW 15.0 mph 23.0 mph N/A   Clear
3:53 PM 31.1 °F 20.1 °F 21.7 °F 68% 29.95 in 10.0 mi WSW 16.1 mph 20.7 mph N/A   Clear
4:12 PM 31.1 °F 18.6 °F 21.6 °F 68% 29.95 in 10.0 mi WSW 20.7 mph 25.3 mph N/A   Clear
4:33 PM 30.7 °F 20.0 °F 21.6 °F 69% 29.97 in 10.0 mi WSW 15.0 mph 21.9 mph N/A   Scattered Clouds
4:53 PM 30.2 °F 19.8 °F 21.2 °F 69% 29.98 in 10.0 mi WSW 13.8 mph 21.9 mph N/A   Mostly Cloudy
5:12 PM 29.7 °F 20.1 °F 21.2 °F 71% 29.98 in 10.0 mi WSW 11.5 mph 19.6 mph N/A   Overcast
5:33 PM 29.3 °F 20.2 °F 21.2 °F 72% 30.00 in 10.0 mi WSW 10.4 mph - N/A   Overcast
5:53 PM 29.3 °F 19.6 °F 21.6 °F 73% 30.00 in 10.0 mi WSW 11.5 mph 18.4 mph N/A   Overcast
6:33 PM 29.7 °F 20.1 °F 22.1 °F 73% 30.01 in 10.0 mi WSW 11.5 mph 18.4 mph N/A   Overcast
6:53 PM 29.8 °F 19.8 °F 22.8 °F 75% 30.02 in 10.0 mi WSW 12.7 mph 21.9 mph N/A   Overcast
7:12 PM 29.1 °F 20.6 °F 22.3 °F 76% 30.02 in 10.0 mi WSW 9.2 mph - N/A   Mostly Cloudy
7:33 PM 27.5 °F 18.6 °F 21.0 °F 77% 30.03 in 10.0 mi SW 9.2 mph - N/A   Scattered Clouds
7:53 PM 27.0 °F 17.3 °F 20.7 °F 77% 30.04 in 10.0 mi SW 10.4 mph - N/A   Clear
8:12 PM 26.6 °F 16.8 °F 20.3 °F 77% 30.06 in 10.0 mi WSW 10.4 mph - N/A   Clear
8:33 PM 27.1 °F 17.5 °F 20.8 °F 77% 30.06 in 10.0 mi West 10.4 mph - N/A   Clear
8:53 PM 27.1 °F 18.9 °F 20.8 °F 77% 30.07 in 10.0 mi WSW 8.1 mph - N/A   Scattered Clouds
9:12 PM 26.8 °F 17.7 °F 20.5 °F 77% 30.08 in 10.0 mi WSW 9.2 mph - N/A   Scattered Clouds
9:33 PM 26.6 °F 19.1 °F 20.3 °F 77% 30.08 in 10.0 mi West 6.9 mph - N/A   Scattered Clouds
9:53 PM 26.2 °F 17.8 °F 20.1 °F 78% 30.09 in 10.0 mi WSW 8.1 mph - N/A   Clear
10:12 PM 25.7 °F 18.0 °F 19.9 °F 79% 30.10 in 10.0 mi WSW 6.9 mph - N/A   Clear
10:33 PM 25.0 °F 14.8 °F 19.4 °F 79% 30.10 in 10.0 mi WSW 10.4 mph - N/A   Clear
10:53 PM 25.0 °F 16.3 °F 19.4 °F 79% 30.11 in 10.0 mi WSW 8.1 mph - N/A   Clear
11:12 PM 24.6 °F 15.8 °F 19.2 °F 80% 30.12 in 10.0 mi WSW 8.1 mph - N/A   Clear
11:33 PM 24.6 °F 15.8 °F 19.4 °F 81% 30.13 in 10.0 mi WSW 8.1 mph - N/A   Clear
11:53 PM 24.3 °F 18.4 °F 19.4 °F 82% 30.14 in 10.0 mi WSW 4.6 mph - N/A   Clear